Location: Middlebury
(44.0153°N, 73.1678°W)
Time: 10:43:57
(UTC-04:00)

QB50P2 - Pass Details

Date: 18 June 2024
Orbit: 561 x 578 km, 98.0° (Epoch: 18 July)

Event Time Altitude Azimuth Distance (km) Brightness Sun altitude
Rises 02:34:29 0° 31° (NNE) 2,769 ? -18.7°
Reaches altitude 10° 02:37:21 10° 53° (NE) 1,863 ? -18.5°
Maximum altitude 02:39:53 16° 92° (E) 1,502 ? -18.3°
Drops below altitude 10° 02:42:25 10° 131° (SE) 1,850 ? -18.1°
Enters shadow 02:42:53 - 137° (SE) 1,977 ? -18.1°
